Powrót do katalogu

DELTA 1 DEB

AktywnySSO
NORAD 7846·DEBRIS·🇺🇸 United States

Wystrzelony Jul 23, 1972 z Vandenberg Space Force Base

Loading…

Następne Przeloty (najbliższe 24 godziny)

TLE

ŚwieżeSource: Space-Track

Epoka: Sep 14, 2026, 05:26 UTC

1 07846U 72058S   26257.22639748  .00000206  00000-0  56718-4 0  9999
2 07846  98.5832 339.7375 0146178 321.7589  37.3307 14.52005427681010

Śledź DELTA 1 DEB w czasie rzeczywistym z AllMySat

Download on the App Store